{"data":{"norad_id":40011,"intl_designator":"2014-033B","name":"HODOYOSHI-4","alt_names":[],"object_type":"PAYLOAD","status":"ACTIVE","operator":null,"country":"JPN","launch_date":"2014-06-19","launch_site_code":"DLS","launch_vehicle":null,"mission":null,"orbit_class":"UNKNOWN","rcs_meters":0.466,"size_class":null,"mass_kg":null,"dimensions":null,"purposes":["earth_obs"],"wikipedia_slug":null,"has_3d_model":false,"image_url":null,"decayed_at":null,"tle_current":{"epoch":"2026-05-25T04:07:44.635296Z","epoch_age_seconds":53551,"freshness":"FRESH","line1":"1 40011U 14033B   26145.17204439  .00000307  00000+0  38868-4 0  9991","line2":"2 40011  97.5461 331.1069 0024406  25.3188 334.9220 14.88062883645383","mean_motion":14.88062883,"eccentricity":0.0024406,"inclination_deg":97.5461,"raan_deg":331.1069,"arg_perigee_deg":25.3188,"mean_anomaly_deg":334.922,"bstar":3.8868e-5,"rev_number":64538,"period_min":96.770104035987,"perigee_km":586.94794268949,"apogee_km":621.02909376907,"semimajor_km":6982.1255182293,"source":"CELESTRAK","updated_at":"2026-05-25T13:38:12.784699Z"}}}